Lexington Weather

Lexington, Massachusetts, USA

32°F
12/8/2019 4:34pm 
  • Lexington Conditions: Mostly cloudy
  • Temperature: 32.2°F / 0.1°CColder 1.1°F than last hour.
  • Dew Point: 18.7°FIncreased 1.6°Fsince last hour.
  • Relative Humidity: 57%Increased 6.0% since last hour.
  • Wind: Wind from SW SW 2 mph, 10-min avg: 2 mph, gust: 5 mph
  • Barometer: 30.40 in Steady
  • Visibility: 10 miles
  • Snow Today: 0.0 in
  •   

Regional Weather Roundup
for Boston / Norton, MA

        
000
ASUS41 KBOX 060100
RWRBOX

REGIONAL WEATHER ROUNDUP
NATIONAL WEATHER SERVICE BOSTON/NORTON MA
800 PM EST THU DEC 05 2019

NOTE:  "FAIR" INDICATES FEW OR NO CLOUDS BELOW 12,000 FEET WITH NO 
SIGNIFICANT WEATHER AND/OR OBSTRUCTIONS TO VISIBILITY.

MAZALL-060200-
EASTERN MASSACHUSETTS
  
CITY           SKY/WX    TMP DP  RH WIND       PRES   REMARKS
BOSTON         FAIR      37  17  44 W13       29.83R WCI  29          
BEVERLY        MOCLDY    34  18  52 W10       29.80R WCI  26          
LAWRENCE       CLOUDY    33  18  53 W9        29.83R WCI  25          
BEDFORD        CLOUDY    34  16  47 W12       29.82R WCI  25          
BLUE HILL        N/A     30  17  58 W15G24    29.80R WCI  19          
NORWOOD        MOCLDY    36  17  46 W14G21    29.85R WCI  27          
MARSHFIELD     NOT AVBL                                               
PLYMOUTH       FAIR      34  18  52 W15G22    29.83R WCI  24          
TAUNTON        FAIR      36  15  42 W10       29.85R WCI  28          
NEW BEDFORD    FAIR      35  16  45 W18G28    29.85R WCI  24          
$$

MAZALL-060200-
CAPE COD AND THE ISLANDS
  
CITY           SKY/WX    TMP DP  RH WIND       PRES   REMARKS
FALMOUTH       CLOUDY    36  19  51 NW12G20   29.83R WCI  27          
HYANNIS        NOT AVBL                                               
CHATHAM        CLOUDY    38  18  44 W12G24    29.82R WCI  30          
PROVINCETOWN   CLOUDY    38  22  52 W23G29    29.81R WCI  27          
NANTUCKET      CLOUDY    39  18  42 NW20G38   29.84R WCI  29          
MARTHAS VNYRD  FAIR      37  17  44 NW13G32   29.86R WCI  29          
$$
 
MAZALL-060200-
CENTRAL AND WESTERN MASSACHUSETTS
  
CITY           SKY/WX    TMP DP  RH WIND       PRES   REMARKS
WORCESTER      FAIR      28  14  55 W22G28    29.81R WCI  14          
FITCHBURG      FAIR      31  16  54 W12G22    29.84R WCI  22          
ORANGE         CLOUDY    32  15  49 NW9       29.86R WCI  24          
SPRINGFIELD    NOT AVBL                                               
WESTFIELD      CLOUDY    32  18  56 W17G31    29.90R WCI  21          
NORTH ADAMS    CLOUDY    28  14  55 NW10G20   29.90R WCI  19          
PITTSFIELD     CLOUDY    28  17  63 NW16G32   29.86R WCI  16          
$$
 
RIZALL-060200-
RHODE ISLAND
  
CITY           SKY/WX    TMP DP  RH WIND       PRES   REMARKS
PROVIDENCE     FAIR      35  16  45 W13G26    29.88R WCI  26          
NEWPORT        FAIR      37  16  42 W18G32    29.86R WCI  27          
BLOCK ISLAND   FAIR      36  20  52 W15G22    29.90R WCI  27          
SMITHFIELD     MOCLDY    32  18  56 W9G23     29.85R WCI  24          
WESTERLY       MOCLDY    37  18  46 W8        29.90R WCI  31          
$$
 
CTZALL-060200-
CONNECTICUT
  
CITY           SKY/WX    TMP DP  RH WIND       PRES   REMARKS
BRADLEY INTL   CLOUDY    36  19  50 W13G21    29.91R WCI  27          
HARTFORD       CLOUDY    36  18  48 NW9       29.92R WCI  29          
BRIDGEPORT     CLOUDY    37  23  56 W10G21    29.96R WCI  30          
DANBURY        CLOUDY    34  22  61 W7G18     29.95R WCI  28          
GROTON         NOT AVBL                                               
NEW HAVEN      CLOUDY    40  22  48 W12G18    29.94R                  
CHESTER        CLOUDY    34  23  64 NW10G16   29.91R WCI  26          
MERIDEN        CLOUDY    35  23  61 CALM      29.93R                  
WILLIMANTIC    CLOUDY    34  18  52 NW10      29.91R WCI  26          
OXFORD         CLOUDY    33  21  61 W6        29.92R WCI  28          
$$

MEZ002-015-021-024-NHZ003-005-008-011-012-014-VTZ005-008-060200-
NORTHERN NEW ENGLAND
  
CITY           SKY/WX    TMP DP  RH WIND       PRES   REMARKS
PORTLAND ME    MOCLDY    38  26  62 NW12      29.76R WCI  30          
BANGOR ME      CLOUDY    33  23  66 NW6       29.70R WCI  28          
CONCORD NH     CLOUDY    32  16  51 W12G26    29.81R WCI  23          
MANCHESTER NH  MOCLDY    34  17  50 NW8       29.81R WCI  27          
NASHUA NH      CLOUDY    33  17  51 W8        29.83R WCI  26          
PORTSMOUTH NH  NOT AVBL                                               
JAFFREY NH     CLOUDY    30  15  53 NW14G22   29.81R WCI  19          
KEENE NH       CLOUDY    31  18  58 NW10G23   29.86R WCI  22          
BURLINGTON VT  FLURRIES  27  15  61 NW16      29.92R WCI  15          
MT. WASHINGTON SNOWSHWR   7   7 100 W63G71      N/A  VSB 0   WCI -24  
$$

NYZ052-076-060200-
EASTERN NEW YORK
  
CITY           SKY/WX    TMP DP  RH WIND       PRES   REMARKS
ALBANY         MOCLDY    32  18  56 NW10G18   29.96R WCI  24          
NEW YORK CITY  FAIR      39  24  55 NW16G26   29.99R WCI  30          
$$
 
ANZALL-060200-
MARINE OBSERVATIONS
  
STATION/POSITION TIME  TEMP    WIND        PRES    VSBY  WAVE
                       AIR SEA DIR/SP/G                  HT/PER
                 (UTC) (F)     (DEG/KT/KT) (MB)    (MI)  (FT/S)
BOSTON BUOY      2350   40 48  280/ 21/ 27 1007.5          4/ 4
BUZZARDS BAY     0000   39     310/ 24/ 26 1011.3R
NANTUCKET SOUND  0030   40 44                N/A
MASS BAY-STELLWA 0004   39 46  300/ 19/ 25 1006.5R  1 7/8  3/ 4
ISLE OF SHOALS   0000   37     290/ 20/ 22 1007.2R
S OF BLOCK IS    0030      51                N/A           7/ 6
$$

......................KEY.........................
  SKY/WX - SKY CONDITION/PRESENT WEATHER
  TMP    - TEMPERATURE IN FAHRENHEIT
  DWPT   - DEWPOINT IN FAHRENHEIT
  RH     - RELATIVE HUMIDITY IN PERCENT
  WIND   - DIRECTION AND SPEED IN MPH
  PRES   - MEAN SEA LEVEL PRESSURE IN INCHES OF HG
  WCI    - WIND CHILL INDEX
  VSB    - VISIBILITY IN MILES
  HX     - HEAT INDEX
  TC     - TEMPERATURE IN CELSIUS
  VRB    - VARIABLE WIND DIRECTION
  N/A    - NOT AVAILABLE
  
      

Other recent Regional Weather Roundups

Sun Dec 8, 4:10pm

Sun Dec 8, 4:01pm

Sun Dec 8, 3:10pm

Sun Dec 8, 3:01pm

Sun Dec 8, 2:10pm

Sun Dec 8, 2:01pm

Sun Dec 8, 1:10pm

Sun Dec 8, 1:00pm

Sun Dec 8, 12:10pm

Sun Dec 8, 12:01pm

Sun Dec 8, 11:10am

Sun Dec 8, 11:00am

Sun Dec 8, 10:10am

Sun Dec 8, 10:01am

Sun Dec 8, 9:10am

Sun Dec 8, 9:00am

Sun Dec 8, 8:10am

Sun Dec 8, 8:00am

Sun Dec 8, 7:10am

Sun Dec 8, 7:00am

Sun Dec 8, 6:10am

Sun Dec 8, 6:00am

Sun Dec 8, 5:10am

Sun Dec 8, 5:00am

Sun Dec 8, 4:10am

Sun Dec 8, 4:00am

Sun Dec 8, 3:10am

Sun Dec 8, 3:00am

Sun Dec 8, 2:10am

Sun Dec 8, 2:00am

Sun Dec 8, 1:10am

Sun Dec 8, 1:00am

Sun Dec 8, 12:10am

Sun Dec 8, 12:01am

Sat Dec 7, 11:10pm

Sat Dec 7, 11:00pm

Sat Dec 7, 10:10pm

Sat Dec 7, 10:00pm

Sat Dec 7, 9:10pm

Sat Dec 7, 9:00pm

Sat Dec 7, 8:10pm

Sat Dec 7, 8:00pm

Sat Dec 7, 7:10pm

Sat Dec 7, 7:00pm

Sat Dec 7, 6:10pm

Sat Dec 7, 6:00pm

Sat Dec 7, 5:10pm

Sat Dec 7, 5:00pm

Sat Dec 7, 4:10pm

Sat Dec 7, 4:00pm

Sat Dec 7, 3:10pm

Sat Dec 7, 3:00pm

Sat Dec 7, 2:10pm

Sat Dec 7, 2:01pm

Sat Dec 7, 1:10pm

Sat Dec 7, 1:00pm

Sat Dec 7, 12:10pm

Sat Dec 7, 12:01pm

Sat Dec 7, 11:10am

Sat Dec 7, 11:00am

Sat Dec 7, 10:10am

Sat Dec 7, 10:01am

Sat Dec 7, 9:10am

Sat Dec 7, 9:00am

Sat Dec 7, 8:10am

Sat Dec 7, 8:00am

Sat Dec 7, 7:10am

Sat Dec 7, 7:00am

Sat Dec 7, 6:10am

Sat Dec 7, 6:00am

Sat Dec 7, 5:10am

Sat Dec 7, 5:00am

Sat Dec 7, 4:10am

Sat Dec 7, 4:00am

Sat Dec 7, 3:10am

Sat Dec 7, 3:00am

Sat Dec 7, 2:10am

Sat Dec 7, 2:01am

Sat Dec 7, 1:10am

Sat Dec 7, 1:00am

Sat Dec 7, 12:10am

Sat Dec 7, 12:01am

Fri Dec 6, 11:10pm

Fri Dec 6, 11:00pm

Fri Dec 6, 10:10pm

Fri Dec 6, 10:00pm

Fri Dec 6, 9:10pm

Fri Dec 6, 9:00pm

Fri Dec 6, 8:10pm

Fri Dec 6, 8:00pm

Fri Dec 6, 7:10pm

Fri Dec 6, 7:01pm

Fri Dec 6, 6:10pm

Fri Dec 6, 6:00pm

Fri Dec 6, 5:10pm

Fri Dec 6, 5:00pm

Fri Dec 6, 4:10pm

Fri Dec 6, 4:00pm

Fri Dec 6, 3:10pm

Fri Dec 6, 3:00pm

Fri Dec 6, 2:10pm

Fri Dec 6, 2:00pm

Fri Dec 6, 1:10pm

Fri Dec 6, 1:00pm

Fri Dec 6, 12:10pm

Fri Dec 6, 12:00pm

Fri Dec 6, 11:10am

Fri Dec 6, 11:00am

Fri Dec 6, 10:10am

Fri Dec 6, 10:00am

Fri Dec 6, 9:10am

Fri Dec 6, 9:00am

Fri Dec 6, 8:10am

Fri Dec 6, 8:00am

Fri Dec 6, 7:10am

Fri Dec 6, 7:00am

Fri Dec 6, 6:10am

Fri Dec 6, 6:01am

Fri Dec 6, 5:10am

Fri Dec 6, 5:00am

Fri Dec 6, 4:10am

Fri Dec 6, 4:00am

Fri Dec 6, 3:10am

Fri Dec 6, 3:00am

Fri Dec 6, 2:10am

Fri Dec 6, 2:00am

Fri Dec 6, 1:10am

Fri Dec 6, 1:00am

Fri Dec 6, 12:10am

Fri Dec 6, 12:00am

Thu Dec 5, 11:10pm

Thu Dec 5, 11:00pm

Thu Dec 5, 10:10pm

Thu Dec 5, 10:01pm

Thu Dec 5, 9:10pm

Thu Dec 5, 9:01pm

Thu Dec 5, 8:10pm

Thu Dec 5, 7:10pm

Thu Dec 5, 7:00pm

Thu Dec 5, 6:10pm

Thu Dec 5, 6:00pm

Thu Dec 5, 5:10pm

Thu Dec 5, 5:00pm

Meta data:

ID: c34f6d07-20de-4ad0-960f-abd67e73b917
Link: https://api.weather.gov/products/c34f6d07-20de-4ad0-960f-abd67e73b917